BCS6757 EGGW-EGLL

Flight info

Callsign BCS6757
Flight time 0h 13m
Altitude 4000
Route BNN/N0266F050
Aircraft A306/H-SDE3FGHIRWY/LB1

Departure

Time 2026-05-06 18:42
Airport London Luton Airport (EGGW)

Arrival

Time 2026-05-06 18:55
Airport London Heathrow Airport (EGLL)
Time Latitude Longitude Altitude Speed Heading
2026-05-06 18:27 51.88419 -0.37389 517 ft 0 kts 324°
2026-05-06 18:33 51.88401 -0.37368 517 ft 3 kts 324°
2026-05-06 18:34 51.88383 -0.37347 517 ft 4 kts 313°
2026-05-06 18:34 51.88370 -0.37321 517 ft 4 kts 312°
2026-05-06 18:34 51.88349 -0.37298 517 ft 4 kts 347°
2026-05-06 18:34 51.88327 -0.37292 517 ft 3 kts 353°
2026-05-06 18:35 51.88308 -0.37286 519 ft 4 kts 342°
2026-05-06 18:35 51.88282 -0.37273 523 ft 3 kts 342°
2026-05-06 18:35 51.88260 -0.37264 524 ft 4 kts 12°
2026-05-06 18:35 51.88240 -0.37285 523 ft 4 kts 63°
2026-05-06 18:36 51.88231 -0.37323 522 ft 3 kts 71°
2026-05-06 18:36 51.88224 -0.37355 522 ft 0 kts 71°
2026-05-06 18:38 51.88226 -0.37348 523 ft 0 kts 71°
2026-05-06 18:38 51.88231 -0.37323 523 ft 5 kts 71°
2026-05-06 18:38 51.88231 -0.37262 523 ft 8 kts 114°
2026-05-06 18:39 51.88169 -0.37213 521 ft 14 kts 161°
2026-05-06 18:39 51.88036 -0.37140 514 ft 23 kts 161°
2026-05-06 18:39 51.87893 -0.37062 516 ft 21 kts 162°
2026-05-06 18:40 51.87635 -0.36971 530 ft 15 kts 224°
2026-05-06 18:40 51.87590 -0.37202 528 ft 28 kts 258°
2026-05-06 18:40 51.87552 -0.37455 528 ft 19 kts 208°
2026-05-06 18:40 51.87455 -0.37585 528 ft 17 kts 222°
2026-05-06 18:41 51.87399 -0.37672 526 ft 18 kts 225°
2026-05-06 18:41 51.87325 -0.37676 527 ft 8 kts 105°
2026-05-06 18:41 51.87378 -0.37338 528 ft 67 kts 74°
2026-05-06 18:41 51.87567 -0.36239 526 ft 133 kts 73°
2026-05-06 18:42 51.87825 -0.34610 954 ft 158 kts 74°
2026-05-06 18:42 51.88126 -0.32758 1641 ft 183 kts 71°
2026-05-06 18:42 51.88420 -0.30651 2481 ft 196 kts 79°
2026-05-06 18:42 51.88378 -0.28552 3131 ft 189 kts 101°
2026-05-06 18:43 51.87694 -0.26650 3653 ft 205 kts 137°
2026-05-06 18:43 51.86392 -0.25751 3912 ft 210 kts 179°
2026-05-06 18:43 51.84929 -0.26533 4033 ft 246 kts 216°
2026-05-06 18:43 51.83613 -0.28488 3974 ft 265 kts 231°
2026-05-06 18:44 51.82511 -0.30920 4166 ft 271 kts 239°
2026-05-06 18:44 51.81522 -0.33543 5039 ft 271 kts 240°
2026-05-06 18:44 51.80567 -0.36131 6134 ft 268 kts 240°
2026-05-06 18:44 51.79583 -0.38705 7051 ft 270 kts 240°
2026-05-06 18:45 51.78550 -0.41285 7683 ft 276 kts 238°
2026-05-06 18:45 51.77471 -0.43870 7954 ft 278 kts 238°
2026-05-06 18:45 51.76369 -0.46437 7989 ft 279 kts 236°
2026-05-06 18:45 51.75249 -0.49004 8041 ft 279 kts 236°
2026-05-06 18:46 51.74053 -0.51477 8035 ft 281 kts 227°
2026-05-06 18:46 51.72639 -0.53602 8043 ft 281 kts 225°
2026-05-06 18:46 51.71230 -0.55783 8032 ft 281 kts 226°
2026-05-06 18:46 51.69812 -0.57966 7995 ft 282 kts 225°
2026-05-06 18:47 51.68400 -0.60156 7998 ft 282 kts 226°
2026-05-06 18:47 51.66992 -0.62357 7992 ft 281 kts 226°
2026-05-06 18:47 51.65586 -0.64547 7992 ft 281 kts 225°
2026-05-06 18:47 51.64175 -0.66734 7999 ft 281 kts 226°
2026-05-06 18:48 51.62754 -0.68916 7965 ft 281 kts 225°
2026-05-06 18:48 51.61356 -0.71077 7560 ft 273 kts 225°
2026-05-06 18:48 51.60029 -0.73136 7319 ft 257 kts 225°
2026-05-06 18:48 51.58772 -0.75095 6953 ft 248 kts 226°
2026-05-06 18:49 51.57536 -0.77018 6503 ft 245 kts 225°
2026-05-06 18:49 51.56170 -0.78614 6090 ft 243 kts 202°
2026-05-06 18:49 51.54563 -0.79069 5927 ft 225 kts 184°
2026-05-06 18:49 51.53053 -0.79105 5775 ft 212 kts 181°
2026-05-06 18:50 51.51577 -0.79105 5384 ft 212 kts 181°
2026-05-06 18:50 51.50103 -0.79104 4974 ft 212 kts 180°
2026-05-06 18:50 51.48651 -0.78808 4550 ft 212 kts 157°
2026-05-06 18:50 51.47508 -0.77425 4138 ft 209 kts 130°
2026-05-06 18:51 51.46588 -0.75620 3909 ft 209 kts 126°
2026-05-06 18:51 51.46202 -0.73479 3265 ft 209 kts 74°
2026-05-06 18:51 51.46698 -0.71327 2939 ft 199 kts 63°
2026-05-06 18:51 51.47267 -0.69352 2610 ft 191 kts 64°
2026-05-06 18:52 51.47650 -0.67369 2290 ft 181 kts 79°
2026-05-06 18:52 51.47695 -0.65462 2203 ft 165 kts 87°
2026-05-06 18:52 51.47689 -0.63671 2018 ft 157 kts 85°
2026-05-06 18:52 51.47698 -0.61903 1789 ft 160 kts 85°
2026-05-06 18:53 51.47707 -0.60107 1559 ft 162 kts 86°
2026-05-06 18:53 51.47713 -0.58323 1335 ft 158 kts 85°
2026-05-06 18:53 51.47717 -0.56674 1121 ft 138 kts 85°
2026-05-06 18:53 51.47722 -0.55214 952 ft 128 kts 85°
2026-05-06 18:54 51.47729 -0.53808 766 ft 125 kts 86°
2026-05-06 18:54 51.47734 -0.52433 614 ft 125 kts 86°
2026-05-06 18:54 51.47739 -0.51048 425 ft 124 kts 87°
2026-05-06 18:54 51.47745 -0.49671 253 ft 123 kts 88°
2026-05-06 18:55 51.47753 -0.48319 122 ft 120 kts 87°
2026-05-06 18:55 51.47757 -0.47050 98 ft 99 kts 90°
2026-05-06 18:55 51.47757 -0.46288 96 ft 42 kts 90°
2026-05-06 18:55 51.47698 -0.46134 96 ft 14 kts 144°
2026-05-06 18:56 51.47662 -0.46093 96 ft 2 kts 143°
2026-05-06 18:56 51.47604 -0.46043 94 ft 8 kts 191°
2026-05-06 18:56 51.47590 -0.46071 97 ft 3 kts 253°
2026-05-06 18:56 51.47592 -0.46172 96 ft 11 kts 271°
2026-05-06 18:57 51.47592 -0.46290 96 ft 10 kts 269°
2026-05-06 18:57 51.47592 -0.46406 93 ft 13 kts 271°
2026-05-06 18:57 51.47593 -0.46550 95 ft 13 kts 270°
2026-05-06 18:57 51.47592 -0.46688 94 ft 12 kts 268°
2026-05-06 18:58 51.47588 -0.46819 93 ft 12 kts 265°
2026-05-06 18:58 51.47557 -0.46918 97 ft 10 kts 209°
2026-05-06 18:58 51.47488 -0.46911 94 ft 10 kts 174°
2026-05-06 18:58 51.47428 -0.46897 95 ft 9 kts 162°
2026-05-06 18:59 51.47357 -0.46868 93 ft 12 kts 171°
2026-05-06 18:59 51.47275 -0.46862 95 ft 12 kts 178°
2026-05-06 18:59 51.47198 -0.46862 95 ft 11 kts 180°
2026-05-06 18:59 51.47124 -0.46863 92 ft 11 kts 181°
2026-05-06 19:00 51.47052 -0.46864 93 ft 10 kts 180°
2026-05-06 19:00 51.46983 -0.46864 94 ft 10 kts 179°
2026-05-06 19:00 51.46914 -0.46863 93 ft 10 kts 179°
2026-05-06 19:00 51.46853 -0.46862 95 ft 5 kts 179°
2026-05-06 19:01 51.46828 -0.46862 83 ft 0 kts 179°
2026-05-06 19:01 51.46803 -0.46861 95 ft 8 kts 179°
2026-05-06 19:02 51.46746 -0.46860 95 ft 8 kts 179°
2026-05-06 19:02 51.46689 -0.46859 96 ft 8 kts 179°
2026-05-06 19:02 51.46658 -0.46895 95 ft 4 kts 254°
2026-05-06 19:02 51.46658 -0.46958 96 ft 6 kts 269°
2026-05-06 19:03 51.46656 -0.47020 95 ft 6 kts 267°
2026-05-06 19:03 51.46656 -0.47121 95 ft 13 kts 271°
2026-05-06 19:03 51.46656 -0.47259 95 ft 12 kts 269°
2026-05-06 19:03 51.46655 -0.47395 95 ft 12 kts 270°
2026-05-06 19:04 51.46635 -0.47485 94 ft 8 kts 209°
2026-05-06 19:04 51.46543 -0.47493 95 ft 15 kts 181°
2026-05-06 19:04 51.46441 -0.47490 95 ft 14 kts 180°
2026-05-06 19:04 51.46363 -0.47485 97 ft 7 kts 161°
2026-05-06 19:05 51.46340 -0.47434 97 ft 8 kts 106°
2026-05-06 19:05 51.46329 -0.47372 98 ft 0 kts 105°
2026-05-06 19:05 51.46325 -0.47336 98 ft 8 kts 97°
2026-05-06 19:06 51.46292 -0.47261 96 ft 10 kts 163°
2026-05-06 19:06 51.46238 -0.47277 96 ft 6 kts 231°
2026-05-06 19:06 51.46220 -0.47324 96 ft 4 kts 238°
2026-05-06 19:06 51.46210 -0.47349 95 ft 3 kts 236°
2026-05-06 19:07 51.46198 -0.47375 96 ft 2 kts 235°
2026-05-06 19:07 51.46193 -0.47389 96 ft 2 kts 236°
2026-05-06 19:07 51.46192 -0.47390 96 ft 0 kts 236°